Terug naar catalogus

COSMOS 2491 DEB

ActiefPO
NORAD 57550·DEBRIS·🇷🇺 Russia

Gelanceerd Dec 25, 2013 vanaf Plesetsk Cosmodrome

Loading…

Volgende Passages (komende 24 uur)

TLE

VerouderendSource: Space-Track

Epoch: Sep 4, 2026, 17:31 UTC

1 57550U 13076AM  26247.73035989  .00002539  00000-0  10905-1 0  9999
2 57550  82.4578  44.6691 0194357 266.7251  91.1597 12.75781055154234

Volg COSMOS 2491 DEB in realtime met AllMySat

Download on the App Store